7 * 24
多渠道服务支持
STARLINK-36237(NORAD编号68337)是美国太空探索技术公司(SpaceX)星链(Starlink)低轨互联网星座中的一员,属于二代星链(Gen2)卫星组网的组成部分。星链计划旨在构建覆盖全球的低时延高速天基通信网络,该卫星运行于近地轨道,采用Ku/Ka频段提供通信服务,参与为全球用户提供互联网接入服务。 作为SpaceX大规模低轨星座部署的一环,它和其他星链卫星一同承担偏远地区联网、移动场景通信等服务功能,SpaceX在2026年正推进降低包括部分星链卫星轨道高度的计划,以提升轨道安全性,减少太空碎片风险。
美国
(US)
| 数据来源 | 国际轨道数据 |
| 星历时间: | 2026-06-11T22:45:12+0800 1天前 查看轨道信息 |
| 半长轴: | 6840.866km |
| 偏心率: | 0.0001345 |
| 轨道倾角: | 53.160° |
| 近地点辐角 | 97.590° |
| 升交点赤经 | 267.167° |
| 平近点角 | 262.525° |
| 近地点: | 461.808km |
| 远地点: | 463.65km |
| 周期: | 93.848分钟 |
| 每日圈数: | 15.343915 |